Tracking 18980 objects as of 20-Feb-2018
HD Live streaming from Space Station
objects crossing your sky now

SAKURA 1A (CS-1A)

Track SAKURA 1A (CS-1A) now!
SAKURA 1A (CS-1A) is classified as:


NORAD ID: 10516
Int'l Code: 1977-118A
Perigee: 36,153.2 km
Apogee: 36,202.7 km
Inclination: 13.7 °
Period: 1,455.8 minutes
Semi major axis: 42548 km
RCS: 8.1739 m2 (large)
Launch date: December 15, 1977
Source: Japan (JPN)
Launch site: AIR FORCE EASTERN TEST RANGE (AFETR)
aabbcc
Your satellite tracking list
Your tracking list is empty




NASA's NSSDC Master Catalog

Two Line Element Set (TLE):
1 10516U 77118A   18050.58403372 -.00000280 +00000-0 +00000-0 0  9994
2 10516 013.6837 327.8606 0005815 344.2561 194.9819 00.98916761105643
Source of the keplerian elements: AFSPC